1500249600.39,47099,16.13,74384.3,-1.77,-30.23,-30.89,0,*52
1500249601.6,47100,16.13,74384.3,-1.81,-30.33,-30.83,0,*51
1500249602.8,47101,16.13,74382.8,-1.81,-30.45,-31.05,0,*5E
1500249604.02,47102,16.13,74384.0,-1.81,-30.51,-31.01,0,*5C
1500249605.27,47103,16.13,74384.3,-1.83,-30.45,-30.95,0,*56
1500249606.53,47104,16.13,74380.5,-1.83,-30.45,-30.95,0,*51
1500249607.72,47105,16.19,74386.5,-1.81,-30.45,-31.01,0,*5E
1500249608.95,47106,16.19,74388.3,-1.83,-30.45,-31.01,0,*5F
1500249610.21,47107,16.13,74384.3,-1.83,-30.51,-31.01,0,*5B
1500249611.42,47108,16.13,74386.5,-1.85,-30.39,-31.01,0,*5C
1500249612.72,47109,16.13,74382.3,-1.83,-30.17,-30.77,0,*57
1500249613.95,47110,16.13,74382.8,-1.83,-30.33,-31.01,0,*59
1500249615.17,47111,16.13,74384.5,-1.85,-30.27,-30.83,0,*50
1500249616.4,47112,16.13,74384.0,-1.83,-30.33,-30.83,0,*50
1500249617.66,47113,16.13,74382.0,-1.83,-30.45,-30.95,0,*57
1500249618.88,47114,16.13,74384.8,-1.85,-30.33,-30.95,0,*57
1500249620.08,47115,16.13,74384.5,-1.85,-30.33,-31.01,0,*5A
1500249621.31,47116,16.13,74382.8,-1.85,-30.33,-30.89,0,*58
1500249622.52,47117,16.13,74388.0,-1.85,-30.33,-30.83,0,*53
1500249623.76,47118,16.13,74384.0,-1.85,-30.33,-30.89,0,*56
1500249624.99,47119,16.13,74384.5,-1.87,-30.23,-30.83,0,*5E
1500249626.25,47120,16.13,74382.8,-1.87,-30.33,-30.89,0,*5F
1500249627.5,47121,16.13,74384.0,-1.87,-30.33,-30.89,0,*5E
1500249628.71,47122,16.13,74380.5,-1.85,-30.23,-30.83,0,*54
1500249629.91,47123,16.13,74384.3,-1.85,-30.33,-31.01,0,*5F
1500249631.17,47124,16.13,74386.0,-1.87,-30.33,-30.89,0,*5B
1500249632.45,47125,16.13,74386.0,-1.87,-30.39,-30.89,0,*50
1500249633.67,47126,16.13,74386.0,-1.87,-30.33,-31.01,0,*58
1500249634.92,47127,16.13,74386.0,-1.87,-30.39,-31.01,0,*53
1500249636.15,47128,16.13,74386.0,-1.89,-30.27,-30.89,0,*5C
1500249637.42,47129,16.13,74380.0,-1.87,-30.17,-30.67,0,*50
1500249638.69,47130,16.13,74386.5,-1.87,-30.39,-30.89,0,*54
1500249639.93,47131,16.13,74384.8,-1.89,-30.11,-30.77,0,*50
1500249641.17,47132,16.13,74384.8,-1.89,-30.27,-30.89,0,*57
1500249642.42,47133,16.13,74382.3,-1.89,-30.39,-30.95,0,*54
1500249643.65,47134,16.13,74384.5,-1.87,-30.33,-30.83,0,*50
1500249644.9,47135,16.13,74386.8,-1.89,-30.39,-30.95,0,*52
1500249646.14,47136,16.13,74384.0,-1.89,-30.39,-30.95,0,*51
1500249647.4,47137,16.13,74384.8,-1.89,-30.39,-30.89,0,*5D
1500249648.64,47138,16.13,74386.0,-1.89,-30.39,-30.95,0,*5F
1500249649.89,47139,16.13,74386.3,-1.89,-30.39,-30.95,0,*5E
1500249651.12,47140,16.13,74384.3,-1.91,-30.33,-30.83,0,*54
1500249652.36,47141,16.13,74384.0,-1.89,-30.11,-30.61,0,*50
1500249653.61,47142,16.13,74386.0,-1.91,-30.33,-30.95,0,*51
1500249654.85,47143,16.13,74386.0,-1.89,-30.27,-30.89,0,*51
1500249656.1,47144,16.13,74386.8,-1.91,-30.33,-30.95,0,*57
1500249657.34,47145,16.13,74384.5,-1.93,-30.27,-30.77,0,*5D
1500249658.59,47146,16.13,74388.5,-1.93,-30.05,-30.51,0,*5A
1500249659.86,47147,16.13,74384.5,-1.91,-30.11,-30.61,0,*5F
1500249661.12,47148,16.13,74384.8,-1.91,-30.17,-30.67,0,*50
1500249662.36,47149,16.13,74386.8,-1.93,-29.95,-30.51,0,*54
1500249663.59,47150,16.13,74386.3,-1.93,-29.89,-30.45,0,*54
1500249664.86,47151,16.13,74384.0,-1.91,-30.27,-30.77,0,*5A
1500249666.1,47152,16.13,74382.3,-1.91,-30.11,-30.67,0,*5D
1500249667.38,47153,16.13,74386.5,-1.91,-30.05,-30.61,0,*5F
1500249668.68,47154,16.13,74386.3,-1.91,-30.17,-30.77,0,*5C
1500249669.94,47155,16.13,74384.5,-1.91,-30.17,-30.67,0,*5C
1500249671.23,47156,16.13,74384.0,-1.91,-30.17,-30.77,0,*5E
1500249672.5,47157,16.13,74382.3,-1.91,-29.89,-30.45,0,*51
1500249673.71,47158,16.13,74382.5,-1.93,-29.79,-30.33,0,*52
1500249674.92,47159,16.13,74386.8,-1.93,-29.95,-30.45,0,*50
1500249676.12,47160,16.13,74380.3,-1.93,-29.79,-30.33,0,*59
1500249677.36,47161,16.13,74384.3,-1.91,-29.79,-30.33,0,*5A
1500249678.63,47162,16.13,74384.0,-1.91,-29.89,-30.33,0,*56
1500249679.86,47163,16.13,74386.3,-1.91,-29.79,-30.27,0,*5D
1500249681.1,47164,16.13,74380.8,-1.93,-29.89,-30.33,0,*52
1500249682.36,47165,16.13,74382.8,-1.91,-29.95,-30.61,0,*5B
1500249683.6,47166,16.13,74384.0,-1.91,-29.79,-30.45,0,*5C
1500249684.86,47167,16.13,74380.8,-1.91,-29.89,-30.33,0,*53
1500249686.1,47168,16.13,74382.8,-1.91,-29.95,-30.45,0,*50
1500249687.36,47169,16.13,74382.8,-1.91,-29.95,-30.51,0,*54
1500249688.61,47170,16.13,74386.5,-1.91,-30.11,-30.51,0,*58
1500249689.85,47171,16.13,74380.8,-1.91,-30.11,-30.67,0,*5C
1500249691.09,47172,16.13,74384.0,-1.91,-29.79,-30.33,0,*58
1500249692.34,47173,16.13,74384.5,-1.93,-30.05,-30.51,0,*5C
1500249693.58,47174,16.13,74388.3,-1.91,-30.11,-30.67,0,*59
1500249694.86,47175,16.13,74384.3,-1.91,-30.05,-30.61,0,*5B
1500249696.12,47176,16.13,74384.5,-1.91,-30.11,-30.51,0,*5E
1500249697.38,47177,16.13,74382.8,-1.93,-30.05,-30.61,0,*5B
1500249698.62,47178,16.13,74380.5,-1.93,-30.17,-30.67,0,*51
1500249699.9,47179,16.13,74384.5,-1.91,-30.05,-30.61,0,*57
1500249701.16,47180,16.13,74386.5,-1.91,-30.11,-30.61,0,*54
1500249702.43,47181,16.13,74380.8,-1.91,-29.89,-30.33,0,*5B
1500249703.67,47182,16.13,74386.0,-1.93,-29.89,-30.33,0,*5A
1500249704.88,47183,16.13,74384.5,-1.93,-29.95,-30.33,0,*56
1500249706.09,47184,16.13,74384.3,-1.93,-29.79,-30.33,0,*53
1500249707.32,47185,16.13,74382.3,-1.91,-29.79,-30.33,0,*50
1500249708.58,47186,16.13,74384.8,-1.91,-29.73,-30.45,0,*58
1500249709.84,47187,16.13,74384.8,-1.91,-29.89,-30.45,0,*5C
1500249711.08,47188,16.13,74380.8,-1.93,-30.11,-30.61,0,*5E
1500249712.32,47189,16.13,74384.0,-1.93,-30.11,-30.77,0,*58
1500249713.58,47190,16.13,74386.0,-1.93,-30.17,-30.77,0,*56
1500249714.87,47191,16.13,74384.8,-1.91,-30.17,-30.77,0,*55
1500249716.11,47192,16.13,74386.0,-1.93,-30.11,-30.61,0,*55
1500249717.37,47193,16.13,74386.0,-1.91,-30.11,-30.51,0,*55
1500249718.57,47194,16.13,74384.0,-1.93,-29.79,-30.45,0,*53
1500249719.78,47195,16.13,74382.5,-1.93,-29.79,-30.33,0,*53
1500249721.07,47196,16.13,74386.8,-1.91,-29.89,-30.51,0,*59
1500249722.28,47197,16.13,74384.5,-1.93,-30.11,-30.67,0,*56
1500249723.53,47198,16.13,74386.3,-1.93,-30.05,-30.61,0,*5A
1500249724.79,47199,16.13,74382.8,-1.93,-30.05,-30.51,0,*58
1500249726.04,47200,16.13,74382.3,-1.93,-30.05,-30.61,0,*58
1500249727.25,47201,16.13,74382.0,-1.93,-29.79,-30.33,0,*5D
1500249728.49,47202,16.13,74386.3,-1.93,-30.11,-30.77,0,*58
1500249729.72,47203,16.13,74386.0,-1.93,-29.95,-30.51,0,*59
1500249730.98,47204,16.13,74386.8,-1.93,-29.89,-30.51,0,*53
1500249732.19,47205,16.13,74386.5,-1.93,-29.79,-30.27,0,*5C
1500249733.42,47206,16.13,74384.8,-1.93,-29.73,-30.27,0,*55
1500249734.65,47207,16.13,74384.0,-1.93,-29.89,-30.45,0,*55
1500249735.91,47208,16.13,74380.0,-1.93,-30.05,-30.61,0,*50
1500249737.16,47209,16.13,74384.0,-1.93,-30.05,-30.51,0,*52
1500249738.42,47210,16.13,74380.0,-1.91,-29.89,-30.45,0,*51
1500249739.66,47211,16.13,74386.3,-1.93,-30.11,-30.61,0,*5D
1500249740.92,47212,16.13,74382.8,-1.93,-30.17,-30.77,0,*5F
1500249742.16,47213,16.13,74384.5,-1.93,-29.89,-30.27,0,*54
1500249743.39,47214,16.13,74384.8,-1.93,-29.73,-30.27,0,*56
1500249744.64,47215,16.13,74386.3,-1.95,-29.95,-30.39,0,*56
1500249745.92,47216,16.13,74384.0,-1.95,-30.01,-30.55,0,*5A
1500249747.13,47217,16.13,74382.5,-1.93,-29.95,-30.45,0,*59
1500249748.36,47218,16.13,74384.0,-1.93,-29.95,-30.51,0,*53
1500249749.57,47219,16.13,74382.3,-1.93,-29.79,-30.33,0,*54
1500249750.81,47220,16.13,74384.5,-1.93,-29.89,-30.45,0,*50
1500249752.05,47221,16.13,74388.0,-1.93,-29.89,-30.33,0,*50
1500249753.31,47222,16.13,74384.5,-1.93,-30.05,-30.61,0,*58
1500249754.52,47223,16.13,74382.5,-1.93,-29.95,-30.45,0,*5E
1500249755.79,47224,16.13,74386.3,-1.95,-30.01,-30.51,0,*5F
1500249757.05,47225,16.13,74384.8,-1.95,-29.95,-30.39,0,*55
1500249758.26,47226,16.13,74386.3,-1.93,-29.95,-30.45,0,*5B
1500249759.52,47227,16.13,74386.3,-1.95,-30.11,-30.55,0,*59
1500249760.77,47228,16.13,74386.3,-1.95,-29.95,-30.55,0,*52
1500249762.03,47229,16.13,74380.8,-1.95,-29.95,-30.51,0,*57
1500249763.27,47230,16.13,74386.5,-1.95,-29.83,-30.33,0,*5C
1500249764.51,47231,16.13,74384.8,-1.95,-29.83,-30.33,0,*5D
1500249765.75,47232,16.13,74384.8,-1.95,-29.67,-30.33,0,*54
1500249766.99,47233,16.13,74382.5,-1.95,-29.67,-30.11,0,*55
1500249768.22,47234,16.13,74380.3,-1.95,-29.61,-30.11,0,*54
1500249769.48,47235,16.13,74382.3,-1.95,-29.67,-30.17,0,*55
1500249770.69,47236,16.13,74380.0,-1.93,-29.79,-30.45,0,*58
1500249771.93,47237,16.13,74380.0,-1.93,-29.89,-30.33,0,*57
1500249773.19,47238,16.13,74382.5,-1.93,-29.89,-30.51,0,*5C
1500249774.44,47239,16.13,74386.3,-1.93,-30.05,-30.61,0,*52
1500249775.68,47240,16.13,74382.3,-1.93,-30.11,-30.61,0,*59
1500249776.91,47241,16.13,74384.5,-1.93,-30.11,-30.61,0,*58
1500249778.15,47242,16.13,74382.5,-1.93,-29.95,-30.61,0,*5F
1500249779.41,47243,16.13,74386.3,-1.95,-29.83,-30.51,0,*5C
1500249780.65,47244,16.13,74384.3,-1.95,-30.11,-30.67,0,*5D
1500249781.89,47245,16.13,74384.8,-1.95,-30.23,-30.83,0,*57
1500249783.15,47246,16.13,74386.8,-1.95,-30.23,-30.73,0,*5B
1500249784.37,47247,16.13,74384.8,-1.97,-30.11,-30.55,0,*5D
1500249785.62,47248,16.13,74380.8,-1.97,-30.01,-30.55,0,*53
1500249786.86,47249,16.13,74382.5,-1.95,-29.83,-30.23,0,*53
1500249788.06,47250,16.13,74384.8,-1.97,-30.11,-30.67,0,*5A
1500249789.3,47251,16.13,74382.3,-1.93,-30.17,-30.67,0,*59
1500249790.5,47252,16.13,74380.5,-1.97,-29.79,-30.23,0,*5E
1500249791.71,47253,16.13,74380.5,-1.97,-29.61,-30.23,0,*56
1500249792.91,47254,16.13,74382.0,-1.97,-29.79,-30.33,0,*59
1500249794.17,47255,16.13,74386.0,-1.95,-29.83,-30.39,0,*55
1500249795.4,47256,16.13,74384.5,-1.95,-29.61,-30.11,0,*50
1500249796.64,47257,16.13,74382.8,-1.95,-29.79,-30.33,0,*58
1500249797.88,47258,16.13,74382.0,-1.95,-29.95,-30.67,0,*54
1500249799.12,47259,16.13,74380.8,-1.95,-30.11,-30.67,0,*51
1500249800.35,47260,16.13,74382.5,-1.97,-29.95,-30.39,0,*56
1500249801.59,47261,16.13,74380.3,-1.95,-30.11,-30.67,0,*5A
1500249802.87,47262,16.13,74386.0,-1.95,-30.01,-30.55,0,*59
1500249804.1,47263,16.13,74382.3,-1.97,-30.01,-30.67,0,*5B
1500249805.36,47264,16.13,74382.8,-1.95,-29.79,-30.17,0,*5E
1500249806.57,47265,16.13,74380.0,-1.97,-29.79,-30.33,0,*5B
1500249807.81,47266,16.13,74384.0,-1.95,-29.83,-30.33,0,*5F
1500249809.07,47267,16.13,74384.0,-1.95,-29.79,-30.17,0,*5D
1500249810.33,47268,16.13,74384.5,-1.95,-29.61,-30.17,0,*5B
1500249811.57,47269,16.13,74382.0,-1.95,-29.79,-30.33,0,*55
1500249812.83,47270,16.13,74382.0,-1.95,-29.95,-30.51,0,*5B
1500249814.07,47271,16.13,74386.3,-1.93,-29.95,-30.61,0,*5F
1500249815.32,47272,16.13,74382.8,-1.97,-30.01,-30.55,0,*5A
1500249816.55,47273,16.13,74384.3,-1.97,-29.83,-30.51,0,*5D
1500249817.75,47274,16.13,74382.5,-1.97,-29.79,-30.33,0,*5B
1500249818.98,47275,16.13,74382.8,-1.97,-29.95,-30.51,0,*5C
1500249820.21,47276,16.13,74380.5,-1.97,-29.83,-30.39,0,*56
1500249821.44,47277,16.13,74380.3,-1.97,-30.11,-30.55,0,*5E
1500249822.69,47278,16.13,74384.5,-1.97,-30.01,-30.55,0,*50
1500249823.92,47279,16.13,74384.5,-1.97,-30.01,-30.67,0,*50
1500249825.15,47280,16.13,74382.8,-1.97,-29.95,-30.51,0,*56
1500249826.36,47281,16.13,74386.3,-1.97,-30.11,-30.67,0,*56
1500249827.57,47282,16.13,74384.5,-1.97,-29.83,-30.33,0,*57
1500249828.8,47283,16.13,74386.5,-1.97,-29.83,-30.39,0,*5C
1500249830.05,47284,16.13,74386.5,-1.97,-30.01,-30.55,0,*53
1500249831.29,47285,16.13,74382.5,-1.95,-30.11,-30.67,0,*50
1500249832.49,47286,16.13,74384.8,-1.97,-29.67,-30.11,0,*59
1500249833.7,47287,16.13,74382.0,-1.97,-29.79,-30.33,0,*57
1500249834.93,47288,16.13,74382.8,-1.95,-29.79,-30.33,0,*5A
1500249836.19,47289,16.13,74384.5,-1.95,-29.83,-30.39,0,*54
1500249837.42,47290,16.13,74382.5,-1.97,-29.95,-30.39,0,*59
1500249838.65,47291,16.13,74384.5,-1.97,-29.95,-30.51,0,*56
1500249839.88,47292,16.13,74382.5,-1.97,-29.83,-30.39,0,*5C
1500249841.11,47293,16.13,74384.5,-1.97,-29.95,-30.51,0,*54
1500249842.32,47294,16.13,74386.8,-1.97,-29.79,-30.33,0,*55
1500249843.52,47295,16.13,74386.3,-1.97,-29.67,-30.23,0,*5A
1500249844.76,47296,16.13,74386.8,-1.97,-29.45,-30.01,0,*59
1500249846.02,47297,16.13,74384.3,-1.97,-29.51,-30.01,0,*5D
1500249847.23,47298,16.13,74384.5,-1.97,-29.67,-30.23,0,*57
1500249848.43,47299,16.13,74386.5,-1.97,-29.79,-30.33,0,*58
1500249849.66,47300,16.13,74384.8,-1.95,-29.79,-30.23,0,*5A
1500249850.93,47301,16.13,74384.8,-1.97,-29.51,-30.17,0,*54
1500249852.16,47302,16.13,74388.8,-1.95,-29.61,-30.11,0,*50
1500249853.36,47303,16.13,74384.0,-1.97,-29.67,-30.23,0,*54
1500249854.6,47304,16.13,74384.8,-1.97,-29.79,-30.17,0,*5B
1500249855.83,47305,16.13,74382.5,-1.97,-29.67,-30.01,0,*52
1500249857.12,47306,16.13,74382.0,-1.95,-29.51,-30.01,0,*56
1500249858.35,47307,16.13,74386.0,-1.97,-29.79,-30.17,0,*58
1500249859.58,47308,16.13,74386.5,-1.95,-29.61,-30.11,0,*5A
1500249860.85,47309,16.13,74386.5,-1.95,-29.35,-29.83,0,*59
1500249862.12,47310,16.13,74382.5,-1.95,-29.35,-29.83,0,*51
1500249863.37,47311,16.13,74380.0,-1.95,-29.13,-29.67,0,*5E
1500249864.58,47312,16.13,74382.5,-1.93,-29.23,-29.61,0,*5E
1500249865.78,47313,16.13,74382.5,-1.93,-29.23,-29.79,0,*56
1500249867.01,47314,16.13,74382.8,-1.93,-29.23,-29.89,0,*5E
1500249868.27,47315,16.13,74382.5,-1.91,-29.57,-30.05,0,*52
1500249869.53,47316,16.13,74384.8,-1.91,-29.73,-30.27,0,*57
1500249870.74,47317,16.13,74384.0,-1.93,-29.45,-29.95,0,*50
1500249871.96,47318,16.13,74386.3,-1.93,-29.13,-29.57,0,*52
1500249873.26,47319,16.13,74384.0,-1.91,-29.39,-29.89,0,*5A
1500249874.49,47320,16.13,74382.3,-1.91,-29.07,-29.61,0,*5B
1500249875.72,47321,16.13,74384.0,-1.91,-29.07,-29.45,0,*5C
1500249876.95,47322,16.13,74384.8,-1.89,-29.23,-29.73,0,*55
1500249878.23,47323,16.13,74382.5,-1.87,-29.01,-29.51,0,*5A
1500249879.47,47324,16.13,74382.8,-1.89,-29.01,-29.57,0,*55
1500249880.71,47325,16.13,74380.8,-1.89,-29.35,-29.83,0,*5A
1500249881.96,47326,16.13,74386.0,-1.87,-29.29,-29.83,0,*5A
1500249883.23,47327,16.13,74382.5,-1.89,-29.39,-30.01,0,*56
1500249884.48,47328,16.13,74382.8,-1.87,-29.17,-29.67,0,*53
1500249885.69,47329,16.13,74386.0,-1.89,-29.23,-29.83,0,*51
1500249886.9,47330,16.13,74384.3,-1.89,-29.67,-30.11,0,*5A
1500249888.15,47331,16.13,74382.0,-1.87,-29.35,-29.95,0,*56
1500249889.45,47332,16.13,74386.5,-1.87,-29.51,-30.17,0,*55
1500249890.68,47333,16.13,74380.0,-1.89,-29.83,-30.39,0,*59
1500249891.94,47334,16.13,74382.3,-1.89,-30.01,-30.61,0,*51
1500249893.17,47335,16.13,74384.0,-1.89,-29.83,-30.39,0,*5F
1500249894.42,47336,16.13,74386.3,-1.89,-30.01,-30.55,0,*54
1500249895.65,47337,16.13,74380.8,-1.87,-29.67,-30.23,0,*52
1500249896.92,47338,16.13,74380.3,-1.87,-29.61,-30.17,0,*5C
1500249898.15,47339,16.13,74380.0,-1.87,-29.79,-30.33,0,*52
1500249899.38,47340,16.13,74380.8,-1.89,-29.73,-30.27,0,*5D
1500249900.64,47341,16.13,74384.5,-1.89,-29.51,-30.01,0,*58
1500249901.85,47342,16.13,74386.5,-1.89,-29.67,-30.23,0,*5E
1500249903.11,47343,16.13,74382.5,-1.89,-29.51,-30.05,0,*5E
1500249904.32,47344,16.13,74382.5,-1.89,-29.67,-30.23,0,*58
1500249905.55,47345,16.13,74382.5,-1.87,-29.67,-30.23,0,*57
1500249906.81,47346,16.13,74382.3,-1.87,-29.79,-30.17,0,*5C
1500249908.07,47347,16.13,74382.3,-1.89,-29.89,-30.39,0,*50
1500249909.32,47348,16.13,74384.8,-1.87,-29.61,-30.05,0,*58
1500249910.58,47349,16.13,74382.8,-1.87,-29.61,-30.17,0,*5A
1500249911.82,47350,16.13,74384.3,-1.89,-29.89,-30.45,0,*5D
1500249913.07,47351,16.13,74380.5,-1.89,-29.73,-30.39,0,*52
1500249914.28,47352,16.13,74382.0,-1.89,-29.57,-30.11,0,*5D
1500249915.54,47353,16.13,74380.0,-1.87,-29.35,-29.83,0,*55
1500249916.81,47354,16.13,74382.3,-1.89,-29.51,-30.01,0,*5C
1500249918.07,47355,16.13,74382.8,-1.87,-29.45,-30.01,0,*56
1500249919.3,47356,16.13,74382.5,-1.85,-29.51,-29.95,0,*57
1500249920.56,47357,16.13,74384.3,-1.87,-29.35,-29.95,0,*56
1500249921.85,47358,16.13,74380.8,-1.87,-29.35,-30.01,0,*5C
1500249923.11,47359,16.13,74380.5,-1.87,-29.61,-30.17,0,*5B
1500249924.34,47360,16.13,74380.0,-1.87,-29.61,-30.23,0,*56
1500249925.6,47361,16.13,74384.0,-1.87,-29.61,-30.17,0,*50
1500249926.86,47362,16.13,74382.8,-1.87,-29.61,-30.17,0,*53
1500249928.09,47363,16.13,74382.0,-1.85,-29.95,-30.39,0,*57
1500249929.32,47364,16.13,74386.0,-1.85,-29.95,-30.51,0,*5E
1500249930.56,47365,16.13,74386.0,-1.85,-29.95,-30.39,0,*51
1500249931.81,47366,16.13,74382.3,-1.87,-30.01,-30.67,0,*5E
1500249933.07,47367,16.13,74386.0,-1.87,-29.95,-30.51,0,*5F
1500249934.28,47368,16.13,74382.5,-1.89,-29.67,-30.33,0,*57
1500249935.51,47369,16.13,74384.0,-1.87,-29.79,-30.23,0,*56
1500249936.77,47370,16.13,74384.5,-1.87,-29.67,-30.17,0,*56
1500249938.0,47371,16.13,74384.8,-1.87,-29.67,-30.23,0,*50
1500249939.26,47372,16.13,74380.5,-1.87,-29.45,-30.05,0,*57
1500249940.47,47373,16.13,74386.8,-1.89,-29.67,-30.11,0,*5D
1500249941.7,47374,16.13,74380.5,-1.87,-29.67,-30.23,0,*55
1500249942.95,47375,16.13,74380.5,-1.87,-29.17,-29.79,0,*54
1500249944.21,47376,16.13,74384.0,-1.87,-29.35,-29.95,0,*55
1500249945.46,47377,16.13,74382.5,-1.87,-29.45,-30.05,0,*52
1500249946.72,47378,16.13,74378.8,-1.87,-29.83,-30.39,0,*58
1500249947.98,47379,16.13,74382.0,-1.87,-29.83,-30.51,0,*57
1500249949.21,47380,16.13,74382.5,-1.87,-29.83,-30.23,0,*54
1500249950.46,47381,16.13,74384.3,-1.87,-29.61,-30.05,0,*5D
1500249951.75,47382,16.13,74380.3,-1.87,-29.51,-30.05,0,*5D
1500249952.98,47383,16.13,74380.8,-1.85,-29.13,-29.67,0,*54
1500249954.23,47384,16.13,74380.3,-1.85,-29.01,-29.51,0,*55
1500249955.49,47385,16.13,74380.5,-1.83,-29.13,-29.61,0,*52
1500249956.71,47386,16.13,74384.3,-1.85,-29.17,-29.79,0,*5A
1500249957.99,47387,16.13,74384.0,-1.83,-29.13,-29.73,0,*53
1500249959.25,47388,16.13,74382.8,-1.83,-29.07,-29.73,0,*59
1500249960.49,47389,16.13,74382.8,-1.83,-28.97,-29.57,0,*56
1500249961.69,47390,16.13,74382.3,-1.81,-29.07,-29.45,0,*57
1500249962.95,47391,16.13,74380.3,-1.81,-29.29,-29.89,0,*5A
1500249964.18,47392,16.13,74384.0,-1.81,-29.13,-29.61,0,*56
1500249965.4,47393,16.13,74380.0,-1.81,-29.29,-29.79,0,*57
1500249966.7,47394,16.13,74380.0,-1.77,-29.51,-30.17,0,*56
1500249968.0,47395,16.13,74382.8,-1.77,-29.51,-30.01,0,*50
1500249969.23,47396,16.13,74382.0,-1.81,-29.73,-30.27,0,*5E
1500249970.46,47397,16.13,74384.5,-1.81,-29.89,-30.45,0,*5E
1500249971.7,47398,16.13,74380.8,-1.81,-29.61,-30.17,0,*50
1500249972.9,47399,16.13,74382.0,-1.81,-29.61,-30.11,0,*57
1500249974.14,47400,16.13,74378.5,-1.81,-29.89,-30.45,0,*57
1500249975.38,47401,16.13,74386.0,-1.81,-29.57,-30.01,0,*55
1500249976.64,47402,16.13,74380.0,-1.81,-29.39,-29.89,0,*56
1500249977.91,47403,16.13,74380.0,-1.77,-29.29,-29.83,0,*55
1500249979.18,47404,16.13,74378.0,-1.77,-29.45,-29.89,0,*52
1500249980.41,47405,16.13,74382.8,-1.81,-29.61,-30.17,0,*53
1500249981.66,47406,16.13,74380.3,-1.77,-29.67,-30.33,0,*59
1500249982.9,47407,16.13,74380.3,-1.81,-29.89,-30.45,0,*50
1500249984.16,47408,16.13,74376.8,-1.77,-29.61,-30.17,0,*57
1500249985.39,47409,16.13,74380.5,-1.81,-29.73,-30.27,0,*5F
1500249986.63,47410,16.13,74380.3,-1.81,-29.89,-30.27,0,*52
1500249987.89,47411,16.13,74382.3,-1.81,-29.89,-30.51,0,*52
1500249989.12,47412,16.13,74380.5,-1.83,-29.79,-30.45,0,*59
1500249990.39,47413,16.13,74378.8,-1.83,-29.89,-30.33,0,*56
1500249991.63,47414,16.13,74380.0,-1.83,-29.79,-30.33,0,*5E
1500249992.89,47415,16.13,74378.0,-1.81,-29.73,-30.17,0,*51
1500249994.09,47416,16.13,74378.3,-1.81,-29.79,-30.27,0,*5B
1500249995.33,47417,16.13,74380.8,-1.81,-29.89,-30.33,0,*50
1500249996.62,47418,16.13,74380.5,-1.83,-29.73,-30.17,0,*5E
1500249997.86,47419,16.13,74382.3,-1.81,-29.89,-30.45,0,*5F
1500249999.13,47420,16.13,74382.5,-1.77,-29.67,-30.17,0,*5B
1500250000.36,47421,16.13,74382.0,-1.81,-29.89,-30.45,0,*54
1500250001.57,47422,16.13,74382.3,-1.81,-29.79,-30.33,0,*59
1500250002.81,47423,16.13,74380.5,-1.81,-29.95,-30.51,0,*5E
1500250004.07,47424,16.13,74382.5,-1.83,-29.89,-30.45,0,*53
1500250005.34,47425,16.13,74382.8,-1.83,-29.61,-30.17,0,*53
1500250006.6,47426,16.13,74382.3,-1.83,-29.39,-29.95,0,*5F
1500250007.83,47427,16.13,74380.3,-1.81,-29.73,-30.27,0,*53
1500250009.06,47428,16.13,74380.5,-1.81,-29.95,-30.51,0,*55
1500250010.27,47429,16.13,74380.8,-1.81,-29.95,-30.45,0,*51
1500250011.51,47430,16.13,74382.5,-1.83,-29.79,-30.45,0,*59
1500250012.75,47431,16.13,74380.3,-1.83,-29.79,-30.33,0,*59
1500250014.0,47432,16.13,74382.5,-1.81,-29.73,-30.17,0,*54
1500250015.24,47433,16.13,74382.3,-1.81,-29.61,-30.17,0,*56
1500250016.5,47434,16.13,74380.8,-1.81,-29.73,-30.17,0,*52
1500250017.76,47435,16.13,74380.3,-1.81,-29.73,-30.17,0,*53
1500250018.96,47436,16.13,74382.3,-1.81,-29.61,-30.11,0,*55
1500250020.2,47437,16.13,74380.3,-1.81,-29.61,-30.17,0,*52
1500250021.44,47438,16.13,74380.5,-1.81,-29.89,-30.45,0,*5C
1500250022.67,47439,16.13,74380.5,-1.81,-29.89,-30.45,0,*5D
1500250023.91,47440,16.13,74380.5,-1.83,-29.79,-30.33,0,*5F
1500250025.15,47441,16.13,74380.0,-1.81,-29.89,-30.33,0,*53
1500250026.42,47442,16.13,74380.8,-1.83,-29.61,-30.17,0,*52
1500250027.7,47443,16.13,74380.0,-1.83,-30.01,-30.51,0,*5F
1500250028.98,47444,16.13,74376.8,-1.83,-30.01,-30.51,0,*58
1500250030.24,47445,16.13,74380.5,-1.83,-29.73,-30.27,0,*55
1500250031.47,47446,16.13,74380.5,-1.81,-29.61,-30.17,0,*54
1500250032.71,47447,16.13,74382.0,-1.81,-29.89,-30.33,0,*55
1500250033.94,47448,16.13,74382.5,-1.81,-29.73,-30.45,0,*5E
1500250035.15,47449,16.13,74380.8,-1.81,-29.95,-30.45,0,*57
1500250036.4,47450,16.13,74382.5,-1.81,-30.01,-30.51,0,*5F
1500250037.61,47451,16.13,74384.3,-1.81,-29.95,-30.45,0,*5E
1500250038.82,47452,16.13,74382.0,-1.81,-29.79,-30.27,0,*5B
1500250040.06,47453,16.13,74382.5,-1.81,-29.61,-30.17,0,*50
1500250041.29,47454,16.13,74382.8,-1.83,-29.45,-29.95,0,*51
1500250042.52,47455,16.13,74380.3,-1.81,-29.73,-30.27,0,*56
1500250043.76,47456,16.13,74382.3,-1.81,-29.89,-30.27,0,*50
1500250044.99,47457,16.13,74380.0,-1.81,-29.73,-30.27,0,*54
1500250046.29,47458,16.13,74378.8,-1.77,-29.51,-30.17,0,*51
1500250047.52,47459,16.06,74376.8,-1.81,-29.61,-30.17,0,*5A
1500250048.76,47460,16.13,74378.8,-1.81,-29.57,-30.01,0,*52
1500250049.99,47461,16.13,74382.3,-1.81,-29.73,-30.27,0,*51
1500250051.23,47462,16.13,74382.3,-1.81,-29.89,-30.33,0,*52
1500250052.46,47463,16.13,74382.0,-1.81,-29.73,-30.27,0,*53
1500250053.68,47464,16.13,74378.8,-1.81,-29.73,-30.27,0,*54
1500250054.89,47465,16.13,74378.3,-1.81,-29.79,-30.33,0,*5A
1500250056.13,47466,16.13,74380.5,-1.81,-29.89,-30.33,0,*56
1500250057.34,47467,16.13,74382.5,-1.81,-29.95,-30.33,0,*5A
1500250058.62,47468,16.13,74382.0,-1.77,-29.67,-30.17,0,*57
1500250059.85,47469,16.13,74382.3,-1.81,-29.89,-30.45,0,*58
1500250061.1,47470,16.13,74380.8,-1.81,-30.01,-30.51,0,*5D
1500250062.34,47471,16.13,74384.5,-1.81,-29.95,-30.51,0,*59
1500250063.57,47472,16.13,74382.3,-1.81,-29.79,-30.17,0,*5A
1500250064.8,47473,16.13,74380.0,-1.81,-29.73,-30.27,0,*52
1500250066.04,47474,16.13,74382.0,-1.77,-29.67,-30.23,0,*5D
1500250067.33,47475,16.13,74380.5,-1.83,-30.01,-30.61,0,*59
1500250068.62,47476,16.13,74380.8,-1.83,-30.01,-30.61,0,*5A
1500250069.9,47477,16.13,74382.0,-1.83,-30.01,-30.51,0,*58
1500250071.19,47478,16.13,74382.8,-1.83,-30.01,-30.61,0,*54
1500250072.45,47479,16.13,74380.8,-1.83,-29.95,-30.51,0,*53
1500250073.68,47480,16.13,74382.3,-1.83,-29.79,-30.27,0,*56
1500250074.89,47481,16.13,74382.8,-1.81,-29.79,-30.27,0,*55
1500250076.16,47482,16.13,74382.0,-1.83,-29.95,-30.61,0,*54
1500250077.42,47483,16.13,74380.0,-1.83,-29.95,-30.51,0,*56
1500250078.68,47484,16.13,74380.5,-1.83,-29.73,-30.33,0,*5D
1500250079.94,47485,16.13,74382.0,-1.83,-29.73,-30.45,0,*5D
1500250081.21,47486,16.13,74382.0,-1.83,-29.61,-30.17,0,*5A
1500250082.47,47487,16.13,74380.5,-1.83,-29.61,-30.17,0,*5B
1500250083.71,47488,16.13,74380.8,-1.83,-29.61,-30.27,0,*57
1500250084.92,47489,16.13,74380.0,-1.85,-29.67,-30.23,0,*52
1500250086.19,47490,16.13,74382.0,-1.77,-29.51,-30.27,0,*56
1500250087.43,47491,16.13,74382.0,-1.83,-29.79,-30.33,0,*53
1500250088.66,47492,16.13,74380.8,-1.81,-29.73,-30.33,0,*58
1500250089.92,47493,16.13,74382.3,-1.81,-29.89,-30.51,0,*58
1500250091.18,47494,16.13,74386.0,-1.81,-30.01,-30.61,0,*54
1500250092.42,47495,16.13,74380.0,-1.83,-29.95,-30.45,0,*54
1500250093.68,47496,16.13,74380.0,-1.83,-29.73,-30.27,0,*5B
1500250094.91,47497,16.13,74380.5,-1.83,-29.79,-30.33,0,*55
1500250096.19,47498,16.13,74380.0,-1.83,-30.01,-30.51,0,*59